Tracking 20623 objects as of 3-Apr-2020
HD Live streaming from Space Station
objects crossing your sky now

METEOR 2-17 DEB

Track METEOR 2-17 DEB now!
10-day predictions


NORAD ID: 28991
Int'l Code: 1988-005F
Perigee: 908.6 km
Apogee: 917.5 km
Inclination: 82.5 °
Period: 103.1 minutes
Semi major axis: 7284 km
RCS: 0.0099 m2 (small)
Launch date: January 30, 1988
Source: Commonwealth of Independent States (former USSR) (CIS)
Launch site: PLESETSK MISSILE AND SPACE COMPLEX (PKMTR)

Note: This is SATELLITE DEBRIS
aabbcc
Your satellite tracking list
Your tracking list is empty




NASA's NSSDC Master Catalog

Two Line Element Set (TLE):
1 28991U 88005F   20091.86067427  .00000475  00000-0  33286-3 0  9993
2 28991  82.5320 280.5374 0006080 280.0550 144.9659 13.96516046749441
Source of the keplerian elements: AFSPC